Dryden Regional Airport
CYHD : now visible

Airfield :











YOU CAN JOIN US ON...

 
LOGIN :

Register | Disclaimer

   EN    FR    IT 

 









Legend :    VFR   Marginal VFR   IFR   Intensive IFR   Very Intensive IFR
Visi :
Ceiling :
>= 8 km
>= 3000ft
5 to 8 km
1000 to 3000 ft
1500m to 5 km
500 to 1000 ft
800 to 1500m
200 to 500 ft
< 800m
< 200 ft
Symbols :   Thunderstorms  Fog  Heavy snow  Heavy precipitations  Wind > 20 kt






- Airport Elevation : 1354 ft
- IATA code : YHD


CYHD - Dryden Regional

CURRENT METAR :
  • 170300Z AUTO 18007KT 9SM OVC110 M17/M24 A2999 RMK SLP207

EXPIRED METARs :
  • 170200Z AUTO 20006KT 9SM BKN120 M18/M25 A3000 RMK SLP205
  • 170100Z AUTO 18005KT 9SM CLR M17/M25 A3001 RMK SLP212

TAF TAF CYHD
Valid from the 17 at 02:00 until the 17 at 14:00 UTC


170138Z 1702/1714 18005KT P6SM SKC
FM170400 16005KT P6SM BKN080
FM170800 16005KT P6SM -SN OVC040
FM171000 16008KT 2SM -SN OVC015 RMK FCST BASED ON AUTO OBS. NXT FCST BY 170800Z



MET'MAP, your aeronautical weather chart ! - Copyright ORBIFLY December 2007 - Disclaimer

ORBIFLY MET'MAP TEAM :

Programming & Development : Alexandra Zaïnal
Concept & original design : Baudouin d'Aumeries
Assistance for programming : Marc-Olivier Méhu
Technical & hardware support : Manuel Goepfert

Contact : metmap@orbifly.com




SOURCES & CREDITS :

   NOAA       Earth
Advisory